Muscle Shoals, AL

1:39 AM CST on December 16, 2019 (GMT -0600)
Northwest Alabama Regional

Weather History for KMSL - October, 2019

Change the Weather History Date:

Thursday, October 3, 2019

  Actual Average Record
Temperature  
Mean Temperature 84 °F 66 °F  
Max Temperature 100 °F 79 °F 100 °F (2019)
Min Temperature 68 °F 55 °F 31 °F (1908)
Degree Days  
Heating Degree Days 0 2  
Month to date heating degree days 0 6  
Since 1 July heating degree days 0 21  
Cooling Degree Days 19 4  
Month to date cooling degree days 57 12  
Year to date cooling degree days 2415 1814  
Growing Degree Days 34 (Base 50)    
Moisture  
Dew Point 65 °F    
Average Humidity 61    
Maximum Humidity 90    
Minimum Humidity 31    
Precipitation  
Precipitation 0.00 in 0.10 in 1.77 in (1937)
Month to date precipitation 0.00 0.32  
Year to date precipitation 46.52 39.75  
Snow  
Snow 0.00 in - - ()
Month to date snowfall 0.0  
Since 1 July snowfall 0.0  
Since 1 September snowfall 0.0  
Snow Depth 0.00 in    
Sea Level Pressure  
Sea Level Pressure 30.02 in    
Wind  
Wind Speed 3 mph (North)    
Max Wind Speed 10 mph    
Max Gust Speed 15 mph    
Visibility 10 miles    
Events      
T = Trace of Precipitation, MM = Missing Value Source: NWS Daily Summary

Daily Weather History Graph

Daily Weather History Graph

Search for Another Location

Airport or City:

Astronomy

Oct. 03, 2019 Rise Set
Actual Time 6:46 AM CDT 6:31 PM CDT
Civil Twilight 6:21 AM CDT 6:57 PM CDT
Nautical Twilight 5:52 AM CDT 7:26 PM CDT
Astronomical Twilight 5:22 AM CDT 7:55 PM CDT
Moon 12:05 PM CDT (10/3) 10:23 PM CDT (10/3)
Length of Visible Light 12h 35m
Length of Day
11h 45m
Waxing Crescent, 30% of the Moon is Illuminated
Oct 3
Waxing Crescent
Oct 5
First Quarter
Oct 13
Full
Oct 21
Last Quarter
Oct 27
New

Hourly Weather History & Observations

Time (CDT) Temp. Heat Index Dew Point Humidity Pressure Visibility Wind Dir Wind Speed Gust Speed Precip Events Conditions
12:53 AM 73.9 °F - 66.9 °F 79% 29.99 in 10.0 mi Calm Calm - N/A   Clear
1:53 AM 73.0 °F - 66.9 °F 81% 30.00 in 10.0 mi Calm Calm - N/A   Clear
2:53 AM 71.1 °F - 66.0 °F 84% 29.99 in 10.0 mi Calm Calm - N/A   Clear
3:53 AM 71.1 °F - 66.9 °F 87% 30.00 in 10.0 mi Calm Calm - N/A   Clear
4:53 AM 70.0 °F - 66.0 °F 87% 30.02 in 10.0 mi Calm Calm - N/A   Clear
5:53 AM 69.1 °F - 66.0 °F 90% 30.03 in 9.0 mi Calm Calm - N/A   Clear
6:53 AM 69.1 °F - 66.0 °F 90% 30.04 in 6.0 mi Calm Calm - N/A   Clear
7:53 AM 73.0 °F - 66.9 °F 81% 30.06 in 9.0 mi Calm Calm - N/A   Clear
8:53 AM 80.1 °F 83.2 °F 70.0 °F 71% 30.07 in 10.0 mi Calm Calm - N/A   Clear
9:53 AM 87.1 °F 90.6 °F 68.0 °F 53% 30.07 in 10.0 mi East 4.6 mph - N/A   Clear
10:53 AM 93.0 °F 94.6 °F 64.0 °F 38% 30.06 in 10.0 mi Variable 3.5 mph - N/A   Clear
11:53 AM 95.0 °F 97.4 °F 64.9 °F 37% 30.05 in 10.0 mi Variable 5.8 mph - N/A   Clear
12:53 PM 98.1 °F 99.6 °F 63.0 °F 31% 30.04 in 10.0 mi ENE 4.6 mph - N/A   Clear
1:53 PM 99.0 °F 101.7 °F 64.0 °F 32% 30.01 in 10.0 mi North 8.1 mph - N/A   Scattered Clouds
2:53 PM 99.0 °F 100.5 °F 63.0 °F 30% 30.00 in 10.0 mi WNW 4.6 mph - N/A   Clear
3:53 PM 97.0 °F 97.8 °F 62.1 °F 31% 29.99 in 10.0 mi NNE 5.8 mph - N/A   Clear
4:53 PM 98.1 °F 99.6 °F 63.0 °F 31% 29.99 in 10.0 mi NNW 6.9 mph - N/A   Clear
5:53 PM 93.9 °F 95.6 °F 64.0 °F 37% 29.99 in 10.0 mi NNW 4.6 mph - N/A   Clear
6:53 PM 89.1 °F 90.3 °F 64.0 °F 43% 29.99 in 10.0 mi North 3.5 mph - N/A   Clear
7:53 PM 87.1 °F 88.3 °F 64.0 °F 46% 30.00 in 10.0 mi North 4.6 mph - N/A   Clear
8:53 PM 84.9 °F 86.6 °F 64.9 °F 51% 30.02 in 10.0 mi North 3.5 mph - N/A   Clear
9:53 PM 82.9 °F 84.6 °F 64.9 °F 54% 30.04 in 10.0 mi Calm Calm - N/A   Clear
10:53 PM 80.1 °F 82.1 °F 66.0 °F 62% 30.04 in 10.0 mi Calm Calm - N/A   Clear
11:53 PM 82.0 °F 83.8 °F 64.9 °F 56% 30.04 in 10.0 mi North 3.5 mph - N/A   Clear